STARLINK-5705, 55472

Orbit data source: Space-Track

STARLINK-5705, 55472 is a payload satellite owned by SpaceX/Seattle (US) in LEO that was launched on Thu, 02 Feb 2023 UTC via an FALCON 9 launch vehicle from the Air Force Eastern Test Range (AFETR). Payload-class satellites include a variety of spacecraft equipped with specific instruments for various scientific and technological missions. These include communications satellites like Starlink; space stations such as the ISS; scientific satellites like the Hubble; Earth observation satellites from companies like Planet Labs, Umbra, and HawkEye 360; GPS; miniature CubeSats for education and research; and military/defense satellites.

Loading next visibility...
Identifier
55472, 2023-015Z
Orbit
LEO
Country
Flag of USUS
Related business
Manufacturer
SpaceX/Seattle
Mission
Operational Commercial Communications
Bus & Motor
STARLINK, Unknown motor
Mass
305 kg wet, ~290 kg dry
Launch date (UTC)
2023-02-02 (3 years ago)
Launch vehicle
FALCON 9
Launch site
Air Force Eastern Test Range (AFETR)
Object type
Payload
Rocket body
Debris
Shape & HBR
Box + 1 Pan, 10.1 m
Radar Cross Section
13.562 m², Large (>1 m²)

Expand to show TLE details & history
Last TLE update: 12 hours ago

TLE from 12 hours ago
0 STARLINK-5705
1 55472U 23015Z   26035.56096696 -.00000005  00000-0  14736-4 0  9998
2 55472  43.0033 133.5928 0001435 271.2264  88.8413 15.02531233165915
Epoch: 2026-02-04T13:27Z
TLE epoch observation values (Epoch: 2026-02-04T13:27:47.545Z)
Latitude
-0.00008°
Longitude
156.91883°
Altitude
558.852 km
Speed
7.584 km/s
True Right ascension
08h 54m 22s
True Declination
0° 00' 00"
Sunlit
Object was in full shadow at epoch
Visualization orbit readout
Latitude
Unknown
Longitude
Unknown
Altitude
Unknown
Speed
Unknown
Apparent Right ascension
Unknown
Apparent Declination
Unknown
Sunlit
N/A
Visualization observer readout
Local Sidereal Time
03:04:13
Azimuth
Unknown
Elevation
Unknown
Doppler factor
Unknown
Orbital elements
Apogee altitude
562.013 km
Perigee altitude
560.022 km
Semi-major axis
6,939.155 km
Eccentricity
0.00014
Inclination
43.0033°
RAAN
133.5928°
Arg. of periapsis
271.2264°
True anomaly
88.85774°
Mean anomaly
88.8413°
Eccentric anomaly
88.84952°
Mean motion
3.75477 °/min
Orbital period
95.88 mins
BSTAR
0.000014736
Loading maneuver chart data...
Computing Atmospheric mass density...
Loading historical data...
Loading historical data...
Loading historical data...
Loading historical data...
Loading historical data...
Loading historical data...
Loading historical data...

Documentation

Showing up to 5 results
|